THY126 LTFM-EPKK

Flight info

Callsign THY126
Flight time 1h 53m
Altitude 38000
Route IBLAX1D/35L IBLAX P727 BGS L622 KOMAN DCT KENIN DCT LENOV LENOV4G
Aircraft A20N/M-SDE2E3FGHIRWXY/LB1

Departure

Time 2026-05-06 17:09
Airport İstanbul Airport (LTFM)

Arrival

Time 2026-05-06 19:02
Airport Kraków John Paul II International Airport (EPKK)
Time Latitude Longitude Altitude Speed Heading
2026-05-06 16:39 41.26777 28.73529 337 ft 0 kts 178°
2026-05-06 17:00 41.26778 28.73529 337 ft 2 kts 178°
2026-05-06 17:00 41.26803 28.73529 335 ft 4 kts 183°
2026-05-06 17:00 41.26829 28.73532 332 ft 4 kts 191°
2026-05-06 17:01 41.26855 28.73542 333 ft 4 kts 210°
2026-05-06 17:01 41.26871 28.73563 332 ft 3 kts 264°
2026-05-06 17:01 41.26872 28.73567 332 ft 1 kts 269°
2026-05-06 17:04 41.26872 28.73564 332 ft 2 kts 269°
2026-05-06 17:04 41.26871 28.73527 332 ft 8 kts 269°
2026-05-06 17:05 41.26870 28.73426 334 ft 13 kts 269°
2026-05-06 17:05 41.26868 28.73305 334 ft 14 kts 269°
2026-05-06 17:05 41.26867 28.73156 334 ft 17 kts 271°
2026-05-06 17:05 41.26848 28.73010 332 ft 15 kts 216°
2026-05-06 17:06 41.26747 28.72989 333 ft 14 kts 194°
2026-05-06 17:06 41.26722 28.72958 334 ft 0 kts 253°
2026-05-06 17:06 41.26720 28.72948 335 ft 5 kts 254°
2026-05-06 17:07 41.26715 28.72873 337 ft 12 kts 268°
2026-05-06 17:07 41.26713 28.72711 333 ft 20 kts 270°
2026-05-06 17:07 41.26720 28.72539 334 ft 14 kts 302°
2026-05-06 17:07 41.26801 28.72510 336 ft 11 kts 358°
2026-05-06 17:08 41.26923 28.72510 336 ft 43 kts 360°
2026-05-06 17:08 41.27251 28.72504 335 ft 100 kts 359°
2026-05-06 17:09 41.31115 28.72482 2558 ft 190 kts 359°
2026-05-06 17:09 41.32539 28.72486 3136 ft 218 kts 359°
2026-05-06 17:09 41.34088 28.72497 3657 ft 237 kts 359°
2026-05-06 17:09 41.35798 28.72510 4342 ft 254 kts 358°
2026-05-06 17:10 41.37563 28.72470 4827 ft 255 kts 352°
2026-05-06 17:10 41.39365 28.71844 4978 ft 288 kts 338°
2026-05-06 17:10 41.41161 28.70773 4990 ft 272 kts 333°
2026-05-06 17:10 41.42795 28.69706 5001 ft 254 kts 333°
2026-05-06 17:11 41.44370 28.68669 4999 ft 251 kts 333°
2026-05-06 17:11 41.45945 28.67642 4998 ft 253 kts 333°
2026-05-06 17:11 41.47537 28.66611 4996 ft 255 kts 334°
2026-05-06 17:11 41.49139 28.65579 4999 ft 256 kts 334°
2026-05-06 17:12 41.50723 28.64562 5004 ft 256 kts 334°
2026-05-06 17:12 41.52328 28.63532 5004 ft 256 kts 334°
2026-05-06 17:12 41.53934 28.62503 5004 ft 256 kts 334°
2026-05-06 17:12 41.55541 28.61472 5052 ft 257 kts 334°
2026-05-06 17:13 41.57114 28.60306 5665 ft 261 kts 325°
2026-05-06 17:13 41.58484 28.58748 6858 ft 257 kts 316°
2026-05-06 17:13 41.59717 28.57023 8027 ft 258 kts 314°
2026-05-06 17:13 41.60938 28.55238 9085 ft 262 kts 314°
2026-05-06 17:14 41.62174 28.53418 10091 ft 266 kts 314°
2026-05-06 17:14 41.63457 28.51533 10674 ft 286 kts 314°
2026-05-06 17:14 41.64852 28.49488 11125 ft 307 kts 314°
2026-05-06 17:14 41.66342 28.47371 11870 ft 316 kts 319°
2026-05-06 17:15 41.68119 28.45633 12761 ft 319 kts 333°
2026-05-06 17:15 41.70138 28.44358 13701 ft 323 kts 337°
2026-05-06 17:15 41.72202 28.43204 14508 ft 329 kts 338°
2026-05-06 17:15 41.74337 28.42030 15339 ft 333 kts 338°
2026-05-06 17:16 41.76481 28.40844 16205 ft 336 kts 338°
2026-05-06 17:16 41.78652 28.39637 17070 ft 339 kts 338°
2026-05-06 17:16 41.80841 28.38415 17918 ft 342 kts 338°
2026-05-06 17:16 41.83050 28.37177 18674 ft 346 kts 338°
2026-05-06 17:17 41.85286 28.35923 19369 ft 349 kts 338°
2026-05-06 17:17 41.87535 28.34659 20073 ft 352 kts 338°
2026-05-06 17:17 41.89805 28.33382 20772 ft 355 kts 338°
2026-05-06 17:17 41.92091 28.32096 21467 ft 358 kts 338°
2026-05-06 17:18 41.94393 28.30784 22141 ft 362 kts 336°
2026-05-06 17:18 41.96638 28.29186 22715 ft 369 kts 329°
2026-05-06 17:18 41.98676 28.27065 23353 ft 374 kts 319°
2026-05-06 17:18 42.00426 28.24434 23939 ft 379 kts 311°
2026-05-06 17:19 42.02011 28.21580 24446 ft 383 kts 308°
2026-05-06 17:19 42.03528 28.18614 24964 ft 386 kts 307°
2026-05-06 17:19 42.04997 28.15632 25459 ft 388 kts 307°
2026-05-06 17:19 42.06501 28.12547 25964 ft 390 kts 307°
2026-05-06 17:20 42.07980 28.09527 26435 ft 392 kts 307°
2026-05-06 17:20 42.09491 28.06466 26895 ft 394 kts 307°
2026-05-06 17:20 42.11019 28.03394 27336 ft 396 kts 307°
2026-05-06 17:20 42.12559 28.00315 27839 ft 396 kts 307°
2026-05-06 17:21 42.14104 27.97230 28270 ft 398 kts 307°
2026-05-06 17:21 42.15662 27.94123 28682 ft 401 kts 307°
2026-05-06 17:21 42.17228 27.90999 29080 ft 403 kts 307°
2026-05-06 17:21 42.18799 27.87859 29474 ft 405 kts 307°
2026-05-06 17:22 42.20412 27.84732 29841 ft 406 kts 311°
2026-05-06 17:22 42.22261 27.81860 30213 ft 405 kts 318°
2026-05-06 17:22 42.24386 27.79380 30511 ft 404 kts 326°
2026-05-06 17:22 42.26746 27.77316 30814 ft 404 kts 330°
2026-05-06 17:23 42.29145 27.75441 31243 ft 403 kts 332°
2026-05-06 17:23 42.31602 27.73619 31664 ft 401 kts 332°
2026-05-06 17:23 42.34057 27.71845 32085 ft 399 kts 333°
2026-05-06 17:23 42.36509 27.70083 32489 ft 398 kts 333°
2026-05-06 17:24 42.38951 27.68324 32878 ft 397 kts 332°
2026-05-06 17:24 42.41382 27.66561 33279 ft 396 kts 332°
2026-05-06 17:24 42.43798 27.64799 33657 ft 394 kts 332°
2026-05-06 17:24 42.46212 27.63030 34024 ft 393 kts 332°
2026-05-06 17:25 42.48607 27.61268 34383 ft 390 kts 332°
2026-05-06 17:25 42.50182 27.60108 34624 ft 389 kts 332°
2026-05-06 17:25 42.53363 27.57762 34877 ft 392 kts 332°
2026-05-06 17:25 42.55772 27.55984 34996 ft 395 kts 332°
2026-05-06 17:26 42.57368 27.54793 35148 ft 395 kts 330°
2026-05-06 17:26 42.59677 27.52776 35407 ft 395 kts 327°
2026-05-06 17:26 42.61939 27.50649 35663 ft 395 kts 326°
2026-05-06 17:26 42.64174 27.48494 35892 ft 395 kts 325°
2026-05-06 17:27 42.66409 27.46306 36107 ft 395 kts 325°
2026-05-06 17:27 42.68631 27.44115 36333 ft 394 kts 325°
2026-05-06 17:27 42.70849 27.41922 36637 ft 392 kts 325°
2026-05-06 17:27 42.73055 27.39740 36853 ft 392 kts 325°
2026-05-06 17:28 42.75267 27.37554 37014 ft 393 kts 325°
2026-05-06 17:28 42.77484 27.35365 37228 ft 393 kts 325°
2026-05-06 17:28 42.79702 27.33173 37389 ft 395 kts 325°
2026-05-06 17:28 42.81925 27.30977 37551 ft 395 kts 325°
2026-05-06 17:29 42.84151 27.28777 37742 ft 395 kts 325°
2026-05-06 17:29 42.86374 27.26577 37933 ft 395 kts 325°
2026-05-06 17:29 42.88574 27.24398 38053 ft 396 kts 325°
2026-05-06 17:30 42.93016 27.19991 38060 ft 393 kts 325°
2026-05-06 17:30 42.97438 27.15596 38057 ft 393 kts 325°
2026-05-06 17:31 43.01861 27.11193 38059 ft 393 kts 325°
2026-05-06 17:31 43.06278 27.06788 38052 ft 393 kts 325°
2026-05-06 17:32 43.10690 27.02428 38050 ft 393 kts 326°
2026-05-06 17:32 43.15216 26.98239 38045 ft 393 kts 327°
2026-05-06 17:33 43.19774 26.94111 38033 ft 393 kts 327°
2026-05-06 17:33 43.24336 26.89985 38041 ft 393 kts 327°
2026-05-06 17:34 43.28894 26.85848 38017 ft 393 kts 327°
2026-05-06 17:34 43.33463 26.81686 38034 ft 395 kts 327°
2026-05-06 17:35 43.38057 26.77488 38026 ft 397 kts 327°
2026-05-06 17:35 43.42651 26.73281 38028 ft 396 kts 327°
2026-05-06 17:36 43.49521 26.66977 38011 ft 396 kts 327°
2026-05-06 17:36 43.54113 26.62754 38013 ft 397 kts 327°
2026-05-06 17:37 43.58702 26.58526 38013 ft 397 kts 327°
2026-05-06 17:37 43.63298 26.54283 38009 ft 397 kts 327°
2026-05-06 17:38 43.67882 26.50044 38009 ft 396 kts 327°
2026-05-06 17:38 43.72464 26.45799 37995 ft 397 kts 326°
2026-05-06 17:39 43.77053 26.41539 37996 ft 397 kts 326°
2026-05-06 17:39 43.81620 26.37292 37997 ft 397 kts 326°
2026-05-06 17:40 43.86201 26.33022 38001 ft 397 kts 327°
2026-05-06 17:40 43.90776 26.28751 37994 ft 396 kts 327°
2026-05-06 17:41 43.95348 26.24476 37991 ft 396 kts 326°
2026-05-06 17:41 43.99930 26.20229 37990 ft 396 kts 327°
2026-05-06 17:42 44.04568 26.16082 37991 ft 396 kts 328°
2026-05-06 17:42 44.09215 26.11960 37991 ft 396 kts 328°
2026-05-06 17:43 44.13770 26.07902 37967 ft 396 kts 328°
2026-05-06 17:43 44.18416 26.03742 37987 ft 397 kts 327°
2026-05-06 17:44 44.23067 25.99565 37985 ft 397 kts 327°
2026-05-06 17:44 44.27717 25.95382 37988 ft 397 kts 327°
2026-05-06 17:45 44.32360 25.91197 37989 ft 397 kts 327°
2026-05-06 17:45 44.36963 25.87041 38000 ft 398 kts 327°
2026-05-06 17:46 44.41625 25.82823 37990 ft 399 kts 327°
2026-05-06 17:46 44.46254 25.78628 37990 ft 399 kts 327°
2026-05-06 17:47 44.50917 25.74393 38003 ft 399 kts 327°
2026-05-06 17:47 44.55569 25.70160 38000 ft 399 kts 327°
2026-05-06 17:48 44.60226 25.65915 37999 ft 399 kts 327°
2026-05-06 17:48 44.64887 25.61656 37996 ft 399 kts 327°
2026-05-06 17:49 44.69547 25.57392 38001 ft 399 kts 327°
2026-05-06 17:49 44.74175 25.53148 38001 ft 399 kts 327°
2026-05-06 17:50 44.78833 25.48868 37999 ft 400 kts 327°
2026-05-06 17:50 44.83496 25.44575 38001 ft 400 kts 326°
2026-05-06 17:51 44.88158 25.40275 38004 ft 400 kts 326°
2026-05-06 17:51 44.92804 25.35981 38011 ft 400 kts 326°
2026-05-06 17:52 44.97470 25.31660 38012 ft 401 kts 326°
2026-05-06 17:52 45.02133 25.27333 38007 ft 401 kts 326°
2026-05-06 17:53 45.06792 25.23002 38018 ft 401 kts 326°
2026-05-06 17:53 45.11430 25.18681 38030 ft 401 kts 326°
2026-05-06 17:54 45.16092 25.14330 38025 ft 401 kts 326°
2026-05-06 17:54 45.20759 25.09965 38023 ft 402 kts 326°
2026-05-06 17:55 45.25423 25.05594 38025 ft 402 kts 326°
2026-05-06 17:55 45.30101 25.01201 38025 ft 402 kts 326°
2026-05-06 17:56 45.34740 24.96837 38025 ft 402 kts 326°
2026-05-06 17:56 45.39406 24.92437 38024 ft 402 kts 326°
2026-05-06 17:57 45.44066 24.88035 38026 ft 402 kts 326°
2026-05-06 17:57 45.48732 24.83619 38017 ft 403 kts 325°
2026-05-06 17:58 45.53399 24.79192 38015 ft 402 kts 325°
2026-05-06 17:58 45.58032 24.74788 38005 ft 402 kts 325°
2026-05-06 17:59 45.62687 24.70355 38006 ft 402 kts 325°
2026-05-06 17:59 45.67338 24.65917 37981 ft 402 kts 325°
2026-05-06 18:00 45.71992 24.61467 37997 ft 401 kts 325°
2026-05-06 18:00 45.76633 24.57020 37979 ft 401 kts 325°
2026-05-06 18:01 45.81269 24.52568 37966 ft 401 kts 325°
2026-05-06 18:01 45.85874 24.48138 37964 ft 401 kts 325°
2026-05-06 18:02 45.90516 24.43663 37955 ft 401 kts 325°
2026-05-06 18:02 45.95150 24.39187 37947 ft 401 kts 324°
2026-05-06 18:03 45.99774 24.34711 37963 ft 400 kts 324°
2026-05-06 18:03 46.04400 24.30223 37953 ft 401 kts 324°
2026-05-06 18:04 46.09034 24.25719 37949 ft 402 kts 324°
2026-05-06 18:04 46.13631 24.21241 37938 ft 401 kts 324°
2026-05-06 18:05 46.18257 24.16727 37941 ft 402 kts 324°
2026-05-06 18:05 46.22885 24.12201 37939 ft 402 kts 324°
2026-05-06 18:06 46.27516 24.07662 37937 ft 402 kts 324°
2026-05-06 18:06 46.32138 24.03122 37935 ft 401 kts 324°
2026-05-06 18:07 46.36760 23.98574 37933 ft 402 kts 324°
2026-05-06 18:07 46.41382 23.94016 37935 ft 402 kts 324°
2026-05-06 18:08 46.46003 23.89450 37936 ft 402 kts 324°
2026-05-06 18:08 46.50622 23.84875 37941 ft 402 kts 324°
2026-05-06 18:09 46.55175 23.80357 37950 ft 402 kts 324°
2026-05-06 18:09 46.59801 23.75756 37950 ft 403 kts 324°
2026-05-06 18:10 46.64427 23.71146 37940 ft 403 kts 323°
2026-05-06 18:10 46.69050 23.66530 37938 ft 403 kts 323°
2026-05-06 18:11 46.72896 23.62683 37940 ft 403 kts 323°
2026-05-06 18:11 46.77517 23.58049 37940 ft 403 kts 323°
2026-05-06 18:12 46.82143 23.53401 37941 ft 403 kts 323°
2026-05-06 18:12 46.86765 23.48748 37941 ft 404 kts 323°
2026-05-06 18:13 46.91401 23.44071 37931 ft 404 kts 323°
2026-05-06 18:13 46.96004 23.39417 37956 ft 404 kts 323°
2026-05-06 18:14 47.00628 23.34732 37949 ft 404 kts 323°
2026-05-06 18:14 47.05259 23.30029 37952 ft 404 kts 323°
2026-05-06 18:15 47.09884 23.25322 37956 ft 404 kts 323°
2026-05-06 18:15 47.14513 23.20601 37949 ft 405 kts 323°
2026-05-06 18:16 47.19138 23.15874 37949 ft 405 kts 323°
2026-05-06 18:16 47.23771 23.11129 37952 ft 405 kts 323°
2026-05-06 18:17 47.28393 23.06385 37946 ft 405 kts 322°
2026-05-06 18:17 47.32987 23.01660 37942 ft 405 kts 322°
2026-05-06 18:18 47.37609 22.96895 37936 ft 405 kts 322°
2026-05-06 18:18 47.42240 22.92109 37930 ft 406 kts 322°
2026-05-06 18:19 47.46871 22.87313 37922 ft 407 kts 322°
2026-05-06 18:19 47.51336 22.82387 37725 ft 365 kts 333°
2026-05-06 18:20 47.53322 22.79988 36890 ft 378 kts 323°
2026-05-06 18:20 47.55528 22.78034 37570 ft 364 kts 328°
2026-05-06 18:20 47.57762 22.76189 37432 ft 373 kts 327°
2026-05-06 18:20 47.60065 22.74275 37145 ft 385 kts 327°
2026-05-06 18:21 47.62438 22.72312 36865 ft 398 kts 327°
2026-05-06 18:21 47.64901 22.70295 36586 ft 410 kts 328°
2026-05-06 18:21 47.67407 22.68262 36300 ft 422 kts 328°
2026-05-06 18:21 47.70034 22.66154 36020 ft 435 kts 329°
2026-05-06 18:22 47.72740 22.64010 35703 ft 446 kts 329°
2026-05-06 18:22 47.75454 22.61897 35569 ft 428 kts 325°
2026-05-06 18:22 47.78018 22.59912 36343 ft 407 kts 326°
2026-05-06 18:22 47.80479 22.57997 37185 ft 391 kts 330°
2026-05-06 18:23 47.82748 22.55904 37739 ft 377 kts 314°
2026-05-06 18:23 47.84625 22.53197 37913 ft 377 kts 313°
2026-05-06 18:23 47.88644 22.48003 37917 ft 388 kts 319°
2026-05-06 18:24 47.93080 22.43224 37916 ft 398 kts 321°
2026-05-06 18:24 47.97699 22.38575 37923 ft 407 kts 322°
2026-05-06 18:25 48.02479 22.33849 37913 ft 416 kts 322°
2026-05-06 18:25 48.07369 22.29032 37908 ft 425 kts 323°
2026-05-06 18:26 48.12357 22.24125 37906 ft 434 kts 323°
2026-05-06 18:26 48.17451 22.19101 37899 ft 438 kts 323°
2026-05-06 18:27 48.19945 22.16650 37907 ft 425 kts 323°
2026-05-06 18:27 48.22413 22.14216 37906 ft 419 kts 323°
2026-05-06 18:27 48.27229 22.09449 37902 ft 412 kts 322°
2026-05-06 18:28 48.31959 22.04748 37681 ft 408 kts 322°
2026-05-06 18:28 48.34309 22.02410 36814 ft 402 kts 322°
2026-05-06 18:28 48.36653 22.00072 35594 ft 406 kts 322°
2026-05-06 18:29 48.39012 21.97716 34617 ft 409 kts 322°
2026-05-06 18:29 48.41410 21.95317 34297 ft 416 kts 322°
2026-05-06 18:29 48.43820 21.92908 34054 ft 413 kts 322°
2026-05-06 18:29 48.46200 21.90528 33803 ft 409 kts 322°
2026-05-06 18:30 48.48541 21.88183 33242 ft 407 kts 322°
2026-05-06 18:30 48.50888 21.85828 32613 ft 404 kts 323°
2026-05-06 18:30 48.53232 21.83474 31998 ft 401 kts 323°
2026-05-06 18:30 48.55544 21.81148 31395 ft 399 kts 323°
2026-05-06 18:31 48.57848 21.78828 30779 ft 397 kts 323°
2026-05-06 18:31 48.60146 21.76510 30174 ft 396 kts 323°
2026-05-06 18:31 48.62408 21.74228 29514 ft 395 kts 323°
2026-05-06 18:31 48.64685 21.71928 29000 ft 391 kts 323°
2026-05-06 18:32 48.66948 21.69640 28714 ft 390 kts 323°
2026-05-06 18:32 48.69205 21.67355 28433 ft 390 kts 323°
2026-05-06 18:32 48.71455 21.65073 28159 ft 389 kts 323°
2026-05-06 18:32 48.73703 21.62793 27892 ft 387 kts 323°
2026-05-06 18:33 48.75938 21.60523 27628 ft 386 kts 323°
2026-05-06 18:33 48.78168 21.58255 27359 ft 385 kts 323°
2026-05-06 18:33 48.80387 21.55996 27104 ft 384 kts 323°
2026-05-06 18:33 48.82606 21.53734 26837 ft 383 kts 323°
2026-05-06 18:34 48.84808 21.51488 26595 ft 382 kts 323°
2026-05-06 18:34 48.87019 21.49230 26356 ft 381 kts 323°
2026-05-06 18:34 48.89191 21.47008 26109 ft 381 kts 323°
2026-05-06 18:34 48.91393 21.44755 25858 ft 381 kts 323°
2026-05-06 18:35 48.93583 21.42512 25611 ft 380 kts 323°
2026-05-06 18:35 48.95771 21.40268 25364 ft 379 kts 323°
2026-05-06 18:35 48.97954 21.38025 25121 ft 378 kts 323°
2026-05-06 18:35 49.00131 21.35788 24882 ft 377 kts 323°
2026-05-06 18:36 49.02301 21.33555 24643 ft 376 kts 323°
2026-05-06 18:36 49.04472 21.31319 24408 ft 375 kts 323°
2026-05-06 18:36 49.06620 21.29104 24172 ft 374 kts 322°
2026-05-06 18:36 49.08743 21.26913 23925 ft 373 kts 322°
2026-05-06 18:37 49.10898 21.24686 23716 ft 372 kts 322°
2026-05-06 18:37 49.12325 21.23210 23544 ft 372 kts 322°
2026-05-06 18:37 49.15157 21.20277 23226 ft 371 kts 322°
2026-05-06 18:37 49.17293 21.18064 22951 ft 370 kts 322°
2026-05-06 18:38 49.19419 21.15858 22679 ft 369 kts 322°
2026-05-06 18:38 49.21535 21.13660 22406 ft 367 kts 322°
2026-05-06 18:38 49.23643 21.11469 22138 ft 365 kts 322°
2026-05-06 18:38 49.25740 21.09285 21882 ft 364 kts 322°
2026-05-06 18:39 49.27836 21.07100 21625 ft 363 kts 322°
2026-05-06 18:39 49.29914 21.04933 21361 ft 361 kts 322°
2026-05-06 18:39 49.31986 21.02768 21105 ft 360 kts 321°
2026-05-06 18:40 49.35569 20.97591 20601 ft 351 kts 307°
2026-05-06 18:40 49.37133 20.94750 20355 ft 349 kts 306°
2026-05-06 18:40 49.38674 20.91919 20122 ft 348 kts 305°
2026-05-06 18:40 49.40240 20.89040 19871 ft 346 kts 305°
2026-05-06 18:41 49.41791 20.86196 19628 ft 345 kts 305°
2026-05-06 18:41 49.43330 20.83374 19388 ft 344 kts 305°
2026-05-06 18:41 49.44845 20.80592 19141 ft 343 kts 305°
2026-05-06 18:41 49.46368 20.77791 18892 ft 341 kts 305°
2026-05-06 18:42 49.47895 20.74979 18670 ft 341 kts 305°
2026-05-06 18:42 49.49411 20.72195 18447 ft 339 kts 305°
2026-05-06 18:42 49.50928 20.69411 18207 ft 338 kts 305°
2026-05-06 18:42 49.52432 20.66641 17946 ft 337 kts 305°
2026-05-06 18:43 49.53932 20.63874 17678 ft 336 kts 305°
2026-05-06 18:43 49.55422 20.61124 17415 ft 330 kts 305°
2026-05-06 18:43 49.56884 20.58427 16970 ft 325 kts 305°
2026-05-06 18:43 49.58330 20.55751 16086 ft 325 kts 305°
2026-05-06 18:44 49.59777 20.53067 15184 ft 324 kts 305°
2026-05-06 18:44 49.61206 20.50416 14418 ft 320 kts 306°
2026-05-06 18:44 49.62625 20.47774 14161 ft 321 kts 306°
2026-05-06 18:44 49.64047 20.45124 13927 ft 319 kts 306°
2026-05-06 18:45 49.65460 20.42492 13683 ft 318 kts 306°
2026-05-06 18:45 49.66851 20.39899 13434 ft 317 kts 306°
2026-05-06 18:45 49.68264 20.37264 13176 ft 316 kts 306°
2026-05-06 18:45 49.69192 20.35533 12995 ft 315 kts 306°
2026-05-06 18:46 49.71037 20.32089 12646 ft 314 kts 306°
2026-05-06 18:46 49.72438 20.29471 12401 ft 312 kts 306°
2026-05-06 18:46 49.73825 20.26877 12147 ft 312 kts 306°
2026-05-06 18:46 49.75189 20.24323 11770 ft 311 kts 305°
2026-05-06 18:47 49.76566 20.21743 11297 ft 309 kts 305°
2026-05-06 18:47 49.77942 20.19220 10914 ft 304 kts 309°
2026-05-06 18:47 49.79492 20.17045 10380 ft 299 kts 317°
2026-05-06 18:47 49.81138 20.15073 9989 ft 299 kts 318°
2026-05-06 18:48 49.82805 20.13136 9773 ft 301 kts 318°
2026-05-06 18:48 49.84484 20.11183 9423 ft 302 kts 318°
2026-05-06 18:48 49.86159 20.09226 8936 ft 299 kts 318°
2026-05-06 18:48 49.87809 20.07292 8468 ft 296 kts 318°
2026-05-06 18:49 49.89434 20.05382 8239 ft 294 kts 317°
2026-05-06 18:49 49.91046 20.03491 7943 ft 294 kts 319°
2026-05-06 18:49 49.92887 20.01988 7860 ft 299 kts 338°
2026-05-06 18:49 49.94924 20.01205 7986 ft 303 kts 345°
2026-05-06 18:50 49.96978 20.00597 7994 ft 293 kts 346°
2026-05-06 18:50 49.98928 20.00167 7989 ft 275 kts 357°
2026-05-06 18:50 50.00757 20.00793 7995 ft 273 kts 30°
2026-05-06 18:50 50.02080 20.02826 7999 ft 269 kts 67°
2026-05-06 18:51 50.02658 20.05554 8003 ft 265 kts 82°
2026-05-06 18:51 50.03015 20.08376 7999 ft 266 kts 84°
2026-05-06 18:51 50.03353 20.11210 8000 ft 266 kts 84°
2026-05-06 18:51 50.03704 20.14040 8003 ft 267 kts 83°
2026-05-06 18:52 50.04063 20.16831 8002 ft 267 kts 83°
2026-05-06 18:52 50.04457 20.19656 8000 ft 268 kts 77°
2026-05-06 18:52 50.05342 20.22216 7997 ft 272 kts 45°
2026-05-06 18:52 50.06947 20.23673 7810 ft 268 kts 10°
2026-05-06 18:53 50.08774 20.23686 7181 ft 263 kts 345°
2026-05-06 18:53 50.10574 20.23024 6574 ft 260 kts 335°
2026-05-06 18:53 50.11637 20.22236 6208 ft 252 kts 318°
2026-05-06 18:53 50.12964 20.19565 5577 ft 223 kts 281°
2026-05-06 18:54 50.13099 20.17352 5349 ft 193 kts 259°
2026-05-06 18:54 50.12901 20.15392 5048 ft 175 kts 253°
2026-05-06 18:54 50.12735 20.14186 4754 ft 170 kts 252°
2026-05-06 18:54 50.12477 20.12417 4261 ft 166 kts 252°
2026-05-06 18:55 50.12217 20.10638 4012 ft 170 kts 253°
2026-05-06 18:55 50.11881 20.08265 4004 ft 168 kts 253°
2026-05-06 18:55 50.11637 20.06493 3998 ft 167 kts 253°
2026-05-06 18:55 50.11396 20.04723 3994 ft 162 kts 252°
2026-05-06 18:56 50.11254 20.03608 3989 ft 149 kts 253°
2026-05-06 18:56 50.11052 20.02083 4012 ft 139 kts 251°
2026-05-06 18:56 50.10859 20.00691 3850 ft 128 kts 251°
2026-05-06 18:56 50.10669 19.99342 3476 ft 128 kts 251°
2026-05-06 18:57 50.10476 19.97962 3090 ft 131 kts 251°
2026-05-06 18:57 50.10281 19.96560 2892 ft 134 kts 252°
2026-05-06 18:57 50.10083 19.95129 2721 ft 136 kts 253°
2026-05-06 18:57 50.09883 19.93686 2535 ft 137 kts 253°
2026-05-06 18:58 50.09861 19.93531 2513 ft 138 kts 253°
2026-05-06 18:58 50.09753 19.92750 2419 ft 138 kts 253°
2026-05-06 18:58 50.09705 19.92404 2381 ft 138 kts 253°
2026-05-06 18:58 50.09676 19.92196 2355 ft 138 kts 253°
2026-05-06 18:59 50.09568 19.91419 2258 ft 138 kts 253°
2026-05-06 18:59 50.09544 19.91246 2236 ft 138 kts 254°
2026-05-06 18:59 50.09474 19.90739 2173 ft 138 kts 253°
2026-05-06 18:59 50.09283 19.89376 2000 ft 139 kts 255°
2026-05-06 19:00 50.09078 19.87893 1817 ft 140 kts 256°
2026-05-06 19:00 50.08871 19.86399 1610 ft 141 kts 252°
2026-05-06 19:00 50.08665 19.84931 1412 ft 140 kts 256°
2026-05-06 19:00 50.08466 19.83440 1263 ft 141 kts 259°
2026-05-06 19:01 50.08260 19.81953 1082 ft 140 kts 258°
2026-05-06 19:01 50.08060 19.80518 905 ft 140 kts 257°
2026-05-06 19:01 50.07853 19.79064 805 ft 131 kts 261°
2026-05-06 19:01 50.07700 19.77955 801 ft 84 kts 257°
2026-05-06 19:02 50.07605 19.77271 804 ft 41 kts 258°
2026-05-06 19:02 50.07549 19.76902 805 ft 15 kts 245°
2026-05-06 19:02 50.07516 19.76847 806 ft 4 kts 193°
2026-05-06 19:02 50.07471 19.76850 804 ft 10 kts 170°
2026-05-06 19:03 50.07413 19.76868 803 ft 0 kts 168°
2026-05-06 19:03 50.07409 19.76869 803 ft 2 kts 168°
2026-05-06 19:04 50.07393 19.76874 803 ft 0 kts 168°
2026-05-06 19:05 50.07387 19.76876 803 ft 2 kts 168°
2026-05-06 19:05 50.07366 19.76883 803 ft 4 kts 168°
2026-05-06 19:05 50.07313 19.76948 803 ft 14 kts 98°
2026-05-06 19:06 50.07327 19.77102 803 ft 15 kts 78°
2026-05-06 19:06 50.07349 19.77260 803 ft 16 kts 78°
2026-05-06 19:06 50.07374 19.77439 803 ft 17 kts 77°
2026-05-06 19:06 50.07399 19.77625 803 ft 18 kts 79°
2026-05-06 19:07 50.07426 19.77815 803 ft 19 kts 78°
2026-05-06 19:07 50.07453 19.78017 803 ft 20 kts 77°
2026-05-06 19:07 50.07483 19.78229 803 ft 20 kts 76°
2026-05-06 19:07 50.07514 19.78448 803 ft 21 kts 78°
2026-05-06 19:08 50.07546 19.78677 803 ft 22 kts 77°
2026-05-06 19:08 50.07579 19.78912 803 ft 23 kts 78°
2026-05-06 19:08 50.07613 19.79156 803 ft 23 kts 77°
2026-05-06 19:08 50.07647 19.79405 803 ft 24 kts 77°
2026-05-06 19:09 50.07678 19.79623 803 ft 13 kts 74°
2026-05-06 19:09 50.07675 19.79677 803 ft 4 kts 124°
2026-05-06 19:09 50.07652 19.79698 803 ft 4 kts 163°
2026-05-06 19:09 50.07564 19.79727 803 ft 18 kts 167°
2026-05-06 19:10 50.07444 19.79767 803 ft 7 kts 168°
2026-05-06 19:10 50.07431 19.79771 803 ft 3 kts 168°
2026-05-06 19:10 50.07408 19.79779 803 ft 4 kts 168°
2026-05-06 19:10 50.07376 19.79772 803 ft 5 kts 212°
2026-05-06 19:11 50.07351 19.79731 803 ft 6 kts 211°
2026-05-06 19:11 50.07310 19.79729 803 ft 6 kts 169°
2026-05-06 19:11 50.07303 19.79731 803 ft 0 kts 169°
2026-05-06 19:11 50.07296 19.79733 803 ft 2 kts 169°
2026-05-06 19:12 50.07291 19.79735 803 ft 0 kts 169°